Погода в Ново-Ивановском

Россия / Кабардино-Балкарская Республика     43°38′22″N   43°57′24″E
темп.,
°C
ветер,
м/с
пор.,
м/с
влажн.,
%
обл.,
%
осадки,
мм/ч
давл.,
гПа
погр.,
м
9 мая, вс
вс900:00+11в228893 0.0 101119
03:00+10св2291100 0.0 100911
06:00+12ссз2283100 0.0 100976
09:00+19ссз566496 0.0 1008830
12:00+21с665499 0.0 10071590
15:00+13сз111679100 0.3 1011707
18:00+8сз122084100 0.9 1015878
21:00+7сз101786100 3.1 1020995
10 мая, пн
пн1000:00+8зсз81682100 0.4 1021829
03:00+8зсз61472100 0.4 1022656
06:00+8зсз41064100 0.0 1022899
09:00+12сз8114769 0.0 10212072
12:00+12з575196 0.1 10201584
15:00+13зсз565011 0.2 10191439
18:00+12з3658100 0.1 10201274
21:00+8ююз4592100 1.8 1022165
11 мая, вт
вт1100:00+7ююз359118 0.3 1020133
03:00+5ю339225 0.3 101958
06:00+6ююв2388100 0.0 1019118
09:00+12вюв5763100 0.0 10181225
12:00+15в5550100 0.0 10171782
15:00+17в344490 0.0 10161759
18:00+16вюв235798 0.0 1017108
21:00+11в497419 0.0 1018187
12 мая, ср
ср1200:00+8в357989 0.0 101887
03:00+6в22870 0.0 101830
06:00+7всв23830 0.0 1018111
09:00+14в44615 0.0 1018778
12:00+18в55521 0.0 10171300
15:00+20в44516 0.0 10161407
18:00+19в35640 0.0 1016219
21:00+13вюв33785 0.0 101631
13 мая, чт
чт1300:00+11в12882 0.0 101612
03:00+10ю11895 0.0 101610
06:00+12ююв12860 0.0 101664
09:00+18в34610 0.0 1016583
12:00+23в45530 0.0 1015944
15:00+24в55485 0.0 10141162
18:00+22в366143 0.0 1015171
21:00+17вюв2273100 0.0 101512